Weather History for KPBI - July, 2012

Change the Weather History Date:

Sunday, July 29, 2012

  Actual Average Record
Temperature  
Mean Temperature 83 °F 83 °F  
Max Temperature 91 °F 90 °F 96 °F (1950)
Min Temperature 75 °F 76 °F 68 °F (1921)
Degree Days  
Heating Degree Days 0 0  
Month to date heating degree days 0 0  
Since 1 June heating degree days 0 0  
Since 1 July heating degree days 0 0  
Cooling Degree Days 18 18  
Month to date cooling degree days 512 511  
Year to date cooling degree days 2299 2110  
Since 1 June cooling degree days 1010 1001  
Growing Degree Days 33 (Base 50)    
Moisture  
Dew Point 73 °F    
Average Humidity 70    
Maximum Humidity 88    
Minimum Humidity 52    
Precipitation  
Precipitation 0.00 in 0.17 in 2.05 in (1992)
Month to date precipitation 5.34 5.39  
Year to date precipitation 38.80 32.40  
Snow  
Snow 0.00 in - - ()
Month to date snowfall 0.0  
Since 1 June snowfall 0.0  
Since 1 July snowfall 0.0  
Snow Depth 0.00 in    
Sea Level Pressure  
Sea Level Pressure 30.05 in    
Wind  
Wind Speed 7 mph (SE)    
Max Wind Speed 16 mph    
Max Gust Speed 21 mph    
Visibility 10 miles    
Events      
T = Trace of Precipitation, MM = Missing Value Source: NWS Daily Summary

Daily Weather History Graph

Daily Weather History Graph

Search for Another Location

Airport or City:

Trip Planner

Search our weather history database for the weather conditions in past years. The results will help you decide how hot, cold, wet, or windy it might be!

Date:

Astronomy

Jul. 29, 2012 Rise Set
Actual Time 6:43 AM EDT 8:09 PM EDT
Civil Twilight 6:18 AM EDT 8:34 PM EDT
Nautical Twilight 5:48 AM EDT 9:04 PM EDT
Astronomical Twilight 5:17 AM EDT 9:35 PM EDT
Moon 5:08 PM EDT (7/29) 3:01 AM EDT (7/29)
Length of Visible Light 14h 15m
Length of Day
13h 25m
Waxing Gibbous, 85% of the Moon is Illuminated
Jul 29
Waxing Gibbous
Aug 1
Full
Aug 9
Last Quarter
Aug 17
New
Aug 24
First Quarter

Hourly Weather History & Observations

Time (EDT) Temp. Heat Index Dew Point Humidity Pressure Visibility Wind Dir Wind Speed Gust Speed Precip Events Conditions
12:53 AM 81.0 °F 85.8 °F 73.0 °F 77% 30.06 in 10.0 mi Calm Calm - N/A   Clear
1:53 AM 80.1 °F 84.2 °F 73.0 °F 79% 30.05 in 10.0 mi Calm Calm - N/A   Partly Cloudy
2:53 AM 78.1 °F - 72.0 °F 81% 30.03 in 10.0 mi Calm Calm - N/A   Partly Cloudy
3:53 AM 78.1 °F - 73.0 °F 84% 30.02 in 10.0 mi Calm Calm - N/A   Partly Cloudy
4:53 AM 78.1 °F - 73.0 °F 84% 30.02 in 10.0 mi Calm Calm - N/A   Partly Cloudy
5:53 AM 77.0 °F - 73.0 °F 88% 30.03 in 10.0 mi Calm Calm - N/A   Clear
6:53 AM 75.0 °F - 72.0 °F 90% 30.06 in 10.0 mi Calm Calm - N/A   Partly Cloudy
7:53 AM 79.0 °F - 73.9 °F 84% 30.07 in 10.0 mi Calm Calm - N/A   Scattered Clouds
8:53 AM 82.9 °F 90.2 °F 75.0 °F 77% 30.09 in 10.0 mi SSW 4.6 mph - N/A   Partly Cloudy
9:53 AM 86.0 °F 93.8 °F 73.9 °F 67% 30.09 in 10.0 mi South 5.8 mph - N/A   Scattered Clouds
10:53 AM 87.1 °F 92.8 °F 71.1 °F 59% 30.10 in 10.0 mi Variable 3.5 mph - N/A   Scattered Clouds
11:53 AM 89.1 °F 97.0 °F 73.0 °F 59% 30.10 in 10.0 mi SSE 5.8 mph - N/A   Scattered Clouds
12:53 PM 89.1 °F 95.0 °F 71.1 °F 55% 30.09 in 10.0 mi SE 9.2 mph - N/A   Scattered Clouds
1:53 PM 90.0 °F 96.4 °F 71.1 °F 54% 30.06 in 10.0 mi East 9.2 mph - N/A   Scattered Clouds
2:53 PM 90.0 °F 95.4 °F 70.0 °F 52% 30.04 in 10.0 mi ESE 13.8 mph - N/A   Scattered Clouds
3:53 PM 90.0 °F 96.9 °F 72.0 °F 55% 30.04 in 10.0 mi ESE 11.5 mph - N/A   Partly Cloudy
4:53 PM 89.1 °F 96.0 °F 72.0 °F 57% 30.01 in 10.0 mi SE 12.7 mph - N/A   Partly Cloudy
5:53 PM 88.0 °F 93.8 °F 71.1 °F 57% 30.01 in 10.0 mi SE 12.7 mph - N/A   Partly Cloudy
6:53 PM 86.0 °F 92.2 °F 72.0 °F 63% 30.01 in 10.0 mi SE 12.7 mph - N/A   Partly Cloudy
7:53 PM 84.9 °F 90.7 °F 72.0 °F 65% 30.02 in 10.0 mi SSE 10.4 mph - N/A   Clear
8:53 PM 84.0 °F 90.2 °F 73.0 °F 69% 30.03 in 10.0 mi SE 11.5 mph - N/A   Partly Cloudy
9:53 PM 84.0 °F 90.2 °F 73.0 °F 69% 30.05 in 10.0 mi SE 8.1 mph - N/A   Clear
10:53 PM 82.9 °F 89.4 °F 73.9 °F 74% 30.07 in 10.0 mi SE 8.1 mph - N/A   Clear
11:53 PM 82.9 °F 89.4 °F 73.9 °F 74% 30.06 in 10.0 mi SE 10.4 mph - N/A   Clear